Regional Weather Roundup
Issued by NWS

Home | Current Version | Previous Version | Graphics & Text | Print | Product List | Glossary On
Versions: 1 2 3 4 5 6 7 8 9 10 11 12 13 14 15 16 17 18 19 20 21 22 23 24 25 26 27
000
ASUS45 KBOU 281207
RWRCO

WEATHER ROUNDUP FOR COLORADO
NATIONAL WEATHER SERVICE DENVER/BOULDER CO
600 AM MDT THU JUL 28 2016

NOTE: "FAIR" INDICATES FEW OR NO CLOUDS BELOW 12000 FEET WITH NO
SIGNIFICANT WEATHER AND/OR OBSTRUCTIONS TO VISIBILITY.

COZ001>005-013-030-031-281300-
...NORTHWEST COLORADO...

CITY           SKY/WX    TMP DP  RH WIND       PRES   REMARKS
CRAIG          FAIR      41  32  70 CALM      30.27R
HAYDEN         FAIR      52  27  37 E10       30.28R
MEEKER         FAIR      47  33  58 NE6       30.29R
MOUNT WERNER   NOT AVBL
STEAMBOAT SPGS FAIR      45  32  59 CALM      30.31S
WALDEN         FAIR      36  28  75 SE8       30.39R
$$

COZ006>008-011-281300-
...WEST CENTRAL VALLEYS...

CITY           SKY/WX    TMP DP  RH WIND       PRES   REMARKS
GRAND JUNCTION FAIR      64  32  30 SE6       30.11R
MONTROSE       FAIR      59  38  45 SE8       30.23R
EAGLE          FAIR      48  30  49 CALM      30.34R
RIFLE          FAIR      54  36  50 NE7       30.22R
DELTA          NOT AVBL
NUCLA          NOT AVBL
$$

COZ017>023-064>068-281300-
...SOUTHWEST COLORADO...

CITY           SKY/WX    TMP DP  RH WIND       PRES   REMARKS
DURANGO        FAIR      58  39  49 SE5       30.32R
CORTEZ         FAIR      52  38  58 CALM      30.23R
PAGOSA SPRINGS FAIR      53  37  54 CALM      30.41S
TELLURIDE      FAIR      56  31  38 CALM      30.51S
WOLF CREEK PAS FAIR      50  34  53 SW20      30.74S
$$

COZ009-010-012-014-032>034-037-058>063-281300-
...CENTRAL COLORADO...

CITY           SKY/WX    TMP DP  RH WIND       PRES   REMARKS
ASPEN          FAIR      52  31  44 S6        30.36S
BUENA VISTA    FAIR      50  28  43 NW6       30.41R
COPPER MTN     FAIR      59  14  17 W7G20     30.69S
BERTHOUD PASS  FAIR      48  34  57 NW22      30.69S
COTTONWOOD PAS FAIR      63  19  19 W6        30.53S
GUNNISON       FAIR      43  32  65 CALM      30.44S
KREMMLING      FAIR      37  32  81 CALM      30.40R
LEADVILLE      FAIR      39  24  55 NE6       30.52F
MONARCH PASS   FAIR      50  32  50 MISG      30.81R
SALIDA         FAIR      56  35  44 W5        30.45R
SUNLIGHT       NOT AVBL
WILKERSON PASS FAIR      52  36  54 SW10G17   30.66S
$$

COZ069>075-281300-
...SAN LUIS VALLEY/SANGRE DE CRISTO MOUNTAINS...

CITY           SKY/WX    TMP DP  RH WIND       PRES   REMARKS
ALAMOSA        FAIR      50  41  71 E5        30.39R
LA VETA PASS   FAIR      54  41  62 S12G22    30.56S
SAGUACHE       FAIR      52  34  50 N10       30.42R
$$

COZ035-036-038>040-281300-
...NORTHERN COLORADO FRONT RANGE...

CITY           SKY/WX    TMP DP  RH WIND       PRES   REMARKS
DENVER INTL AP FAIR      62  57  83 SW7       30.15F
DMNS CITY PARK   N/A     63  59  86 SE1       30.15S
AURORA         PTCLDY    60  55  85 S2        30.18S
FRONT RANGE AP NOT AVBL
ERIE MUNI ARPT FAIR      57  55  92 CALM      30.14F
BOULDER MUN AP FAIR      63  59  88 CALM      30.16R
CENTENNIAL     FAIR      61  54  77 S8        30.19S
BROOMFIELD     FAIR      61  59  94 CALM      30.18S
LONGMONT       NOT AVBL
$$

COZ041-046-047-076>085-087-088-281300-
...PIKES PEAK/PALMER DIVIDE AND SOUTHERN FOOTHILLS...

CITY           SKY/WX    TMP DP  RH WIND       PRES   REMARKS
COLO. SPRINGS  FAIR      62  54  74 E8        30.26R
A. F. ACADEMY  FAIR      54  50  85 NW7       30.27R
SCHRIEVER AFB  NOT AVBL
ELLICOTT       FAIR     N/A N/A N/A E12       30.24R
FALCON         NOT AVBL
FORT CARSON    FAIR      57  52  82 N1        30.22R
LIMON          FAIR      57  55  93 SE9       30.23R
MONUMENT HILL  FAIR      54  50  87 SE6       30.31R
TRINIDAD       NOT AVBL
$$

COZ042>045-048>051-090-091-281300-
...NORTHEAST COLORADO...

CITY           SKY/WX    TMP DP  RH WIND       PRES   REMARKS
GREELEY ARPT   FAIR      59  55  88 N6        30.14R
AKRON          FAIR      60  55  83 S15       30.14F
BURLINGTON     FAIR      63  54  72 SE14      30.15F
WRAY           NOT AVBL
STERLING       NOT AVBL
HOLYOKE        NOT AVBL
FORT MORGAN    NOT AVBL
$$

COZ086-089-092>099-281300-
...SOUTHEAST COLORADO...

CITY           SKY/WX    TMP DP  RH WIND       PRES   REMARKS
PUEBLO         FAIR      65  56  72 N7        30.15R
LA JUNTA       FAIR      65  61  87 E7        30.12S
LAMAR          FAIR      67  62  84 MISG      30.15R
SPRINGFIELD      N/A     62  57  83 S15       30.16F
$$




USA.gov is the U.S. government's official web portal to all federal, state and local government web resources and services.